Weather History for Fairbanks, AK

Change the Weather History Date:

Tuesday, September 11, 2012

  Actual Average Record
Temperature  
Mean Temperature 42 °F 47 °F  
Max Temperature 54 °F 58 °F 76 °F (1910)
Min Temperature 29 °F 37 °F 24 °F (1927)
Degree Days  
Heating Degree Days 23 18  
Month to date heating degree days 192 172  
Since 1 July heating degree days 590 561  
Cooling Degree Days 0 0  
Month to date cooling degree days 0 0  
Year to date cooling degree days 34 61  
Moisture  
Dew Point 27 °F    
Average Humidity 57    
Maximum Humidity 85    
Minimum Humidity 21    
Precipitation  
Precipitation 0.00 in 0.04 in 0.75 in (2013)
Month to date precipitation 0.22 0.49  
Year to date precipitation 7.43 8.06  
Snow  
Snow 0.00 in 0.00 in 0.60 in (1992)
Month to date snowfall 0.0 0.3  
Since 1 July snowfall 0.0 0.3  
Since 1 September snowfall 0.0 0.3  
Snow Depth 0.00 in    
Sea Level Pressure  
Sea Level Pressure 29.89 in    
Wind  
Wind Speed 7 mph (NE)    
Max Wind Speed 13 mph    
Max Gust Speed -    
Visibility 10 miles    
Events      
T = Trace of Precipitation, MM = Missing Value Source: NWS Daily Summary

Daily Weather History Graph

Daily Weather History Graph

Search for Another Location

Airport:

Trip Planner

Search our weather history database for the weather conditions in past years. The results will help you decide how hot, cold, wet, or windy it might be!

Date:

Astronomy

Sep. 11, 2012 Rise Set
Actual Time 7:03 AM AKDT 8:30 PM AKDT
Civil Twilight 6:12 AM AKDT 9:20 PM AKDT
Nautical Twilight 5:06 AM AKDT 10:26 PM AKDT
Astronomical Twilight 3:37 AM AKDT 11:52 PM AKDT
Moon 1:00 AM AKDT (9/11) 6:57 PM AKDT (9/11)
Length of Visible Light 15h 08m
Length of Day
13h 26m
Waning Crescent, 20% of the Moon is Illuminated
Sep 11
Waning Crescent
Sep 15
New
Sep 22
First Quarter
Sep 29
Full
Oct 7
Last Quarter

Hourly Weather History & Observations

Time (AKDT) Temp. Windchill Dew Point Humidity Pressure Visibility Wind Dir Wind Speed Gust Speed Precip Events Conditions
12:53 AM 39.0 °F 33.4 °F 28.9 °F 67% 29.95 in 10.0 mi NNE 8.1 mph - N/A   Mostly Cloudy
1:53 AM 37.0 °F 31.6 °F 28.0 °F 70% 29.95 in 10.0 mi NNE 6.9 mph - N/A   Mostly Cloudy
2:53 AM 35.1 °F 29.3 °F 27.0 °F 72% 29.94 in 10.0 mi North 6.9 mph - N/A   Mostly Cloudy
3:53 AM 34.0 °F 31.0 °F 27.0 °F 75% 29.94 in 10.0 mi ENE 3.5 mph - N/A   Mostly Cloudy
4:53 AM 30.9 °F 25.2 °F 25.0 °F 79% 29.95 in 10.0 mi NE 5.8 mph - N/A   Scattered Clouds
5:53 AM 30.0 °F 25.2 °F 26.1 °F 85% 29.96 in 10.0 mi ENE 4.6 mph - N/A   Scattered Clouds
6:53 AM 30.0 °F 24.1 °F 26.1 °F 85% 29.95 in 10.0 mi NE 5.8 mph - N/A   Scattered Clouds
7:53 AM 30.9 °F 25.2 °F 26.1 °F 82% 29.95 in 10.0 mi ENE 5.8 mph - N/A   Scattered Clouds
8:53 AM 35.1 °F 29.3 °F 28.0 °F 76% 29.95 in 10.0 mi NE 6.9 mph - N/A   Partly Cloudy
9:53 AM 39.0 °F 34.0 °F 28.2 °F 65% 29.95 in 10.0 mi NE 6.9 mph - N/A   Partly Cloudy
10:53 AM 44.1 °F 38.1 °F 27.0 °F 51% 29.94 in 10.0 mi ENE 11.5 mph - N/A   Partly Cloudy
11:53 AM 46.0 °F 40.2 °F 26.1 °F 46% 29.92 in 10.0 mi ENE 12.7 mph - N/A   Clear
12:53 PM 48.9 °F - 26.1 °F 41% 29.91 in 10.0 mi East 11.5 mph - N/A   Clear
1:53 PM 50.0 °F - 26.1 °F 39% 29.90 in 10.0 mi ENE 8.1 mph - N/A   Clear
2:53 PM 51.1 °F - 25.0 °F 36% 29.89 in 10.0 mi ENE 8.1 mph - N/A   Partly Cloudy
3:53 PM 53.1 °F - 25.0 °F 34% 29.87 in 10.0 mi NE 8.1 mph - N/A   Partly Cloudy
4:53 PM 54.0 °F - 25.0 °F 33% 29.85 in 10.0 mi ENE 8.1 mph - N/A   Partly Cloudy
5:53 PM 54.0 °F - 25.0 °F 33% 29.83 in 10.0 mi ENE 6.9 mph - N/A   Partly Cloudy
6:53 PM 53.1 °F - 25.0 °F 34% 29.83 in 10.0 mi ENE 10.4 mph - N/A   Scattered Clouds
7:53 PM 48.9 °F - 26.1 °F 41% 29.82 in 10.0 mi ENE 5.8 mph - N/A   Scattered Clouds
8:53 PM 43.0 °F 40.3 °F 28.9 °F 58% 29.81 in 10.0 mi NNE 4.6 mph - N/A   Scattered Clouds
9:53 PM 39.9 °F 35.1 °F 28.0 °F 63% 29.80 in 10.0 mi North 6.9 mph - N/A   Partly Cloudy
10:53 PM 37.0 °F - 28.0 °F 70% 29.80 in 10.0 mi Calm Calm - N/A   Partly Cloudy
11:53 PM 36.0 °F 32.1 °F 27.0 °F 70% 29.79 in 10.0 mi NE 4.6 mph - N/A   Partly Cloudy